Theta_e
309 309 309 309 309 309 309 309 309 309 309 309 309 309 309 309 309 309 309 309 310 310 310 311 311 311 311 311 311 311 312 313 313 314 314 314 314 315 314 314 313 314 314 314 313 313 313 313 315 314 315 315 315 316 317 318 316 318 327 324 319 322 322 321 325 319 316 321 316 314 315 314 316 315 314 315 315 314 314 314 315 315 315 315 314 314 314 314
309 309 309 309 309 309 309 309 309 309 309 309 309 310 309 310 310 310 310 310 310 310 311 311 311 311 311 311 311 312 312 313 314 314 314 314 314 314 314 314 314 315 314 314 314 313 313 314 315 315 315 315 315 316 317 319 315 321 326 317 323 332 322 316 320 315 314 317 314 314 314 313 314 314 314 315 315 313 314 314 315 315 315 315 314 314 314 314
310 309 309 309 309 309 309 309 309 309 309 309 309 310 310 310 310 310 310 310 310 311 311 311 311 311 311 311 311 312 312 313 314 314 314 313 314 314 314 314 314 315 315 315 314 313 314 314 315 315 315 315 315 317 317 318 317 317 317 320 332 326 314 313 314 314 315 315 314 314 313 312 314 313 313 314 313 313 314 315 314 314 315 315 314 314 314 314
311 310 310 309 309 309 309 309 309 309 309 309 310 310 309 309 310 310 310 310 310 311 310 310 311 311 311 311 311 312 312 314 315 313 314 314 314 314 314 315 315 315 315 315 314 313 314 314 315 314 315 315 315 316 316 317 317 315 316 326 327 313 313 317 314 316 315 314 314 313 312 313 315 314 313 313 314 315 314 314 314 314 314 314 315 314 314 314
311 311 310 310 310 309 309 309 309 309 309 309 309 309 310 310 310 310 310 310 310 310 311 311 311 311 311 311 311 311 312 316 316 313 313 314 314 314 314 315 315 315 315 315 314 313 314 314 315 314 315 315 315 315 315 316 316 316 318 320 316 311 316 317 315 317 315 314 314 312 313 315 315 313 313 313 314 315 314 314 314 313 313 314 314 314 314 314
312 311 311 310 310 310 309 309 309 309 309 309 309 309 310 309 310 310 310 310 310 310 310 310 310 310 310 310 311 311 312 315 315 314 314 314 314 314 314 316 315 314 315 315 314 313 314 314 315 315 315 313 314 314 313 315 315 318 319 314 314 313 315 316 316 316 314 314 313 313 314 313 312 313 313 312 313 314 314 313 313 313 313 313 313 313 314 314
311 311 311 311 310 310 309 309 309 309 309 309 309 309 309 310 310 310 310 310 310 310 310 310 310 310 310 311 311 312 314 314 314 314 315 314 315 315 315 315 315 315 315 315 313 313 313 314 315 314 314 313 312 313 313 315 314 318 320 315 314 314 313 315 314 314 314 313 313 313 312 311 312 313 313 312 313 313 312 312 312 313 313 312 313 313 314 314
310 311 311 311 310 310 309 309 309 309 309 309 309 309 309 310 309 310 310 309 310 310 310 310 310 310 311 312 313 315 315 314 314 315 315 315 315 315 315 315 315 315 315 315 313 313 313 314 314 313 313 312 312 312 312 312 313 317 319 315 313 313 313 314 313 313 314 313 313 312 311 312 313 312 311 311 312 311 312 312 312 312 313 313 313 314 314 314
308 309 309 310 310 309 309 309 309 309 309 309 309 309 309 309 309 310 309 310 310 310 310 310 311 311 313 314 315 316 315 315 316 317 317 317 317 317 317 316 316 316 315 315 313 313 314 313 314 314 313 312 312 312 311 313 314 314 315 313 312 312 313 313 313 313 313 313 313 312 311 312 311 311 311 310 311 311 312 313 312 313 314 315 314 313 313 313
307 307 308 308 308 309 309 309 309 309 309 309 309 309 309 309 309 309 309 310 310 311 311 312 313 314 315 316 317 317 316 316 318 319 320 320 320 319 319 318 317 317 315 314 313 313 314 313 314 314 313 313 312 312 311 313 314 312 312 312 312 312 312 312 313 313 312 312 312 312 312 311 310 313 314 311 311 312 312 313 313 313 314 315 314 313 313 313
307 307 307 307 307 308 308 308 308 308 309 309 309 309 309 309 309 310 310 311 312 314 315 315 316 316 316 316 316 317 317 317 318 319 319 319 320 319 319 319 317 317 316 314 313 314 313 313 314 314 314 314 313 312 312 312 313 312 311 312 312 311 312 313 313 312 311 312 312 311 312 310 309 312 313 310 310 312 312 313 312 313 314 313 313 313 313 312
308 307 307 307 308 308 307 308 308 308 309 309 309 310 310 311 312 313 314 315 316 316 317 317 316 316 315 314 315 317 317 317 318 318 318 318 318 317 316 318 318 317 315 314 315 316 315 314 314 314 315 313 313 313 313 312 312 312 312 314 315 312 314 312 311 310 310 313 312 311 314 316 316 313 310 309 310 311 312 312 312 312 312 312 312 312 312 312
308 308 308 309 309 309 310 310 310 311 312 313 314 314 315 316 317 317 317 317 317 316 316 316 315 315 314 314 316 318 318 317 317 317 317 317 316 316 316 316 317 315 314 315 316 317 317 316 314 315 315 313 314 313 313 311 311 313 311 312 315 315 318 312 308 310 311 312 311 311 317 326 325 314 308 310 310 311 312 311 311 311 311 311 311 311 311 311
310 310 310 311 312 313 313 314 315 316 317 317 317 317 317 317 317 317 316 316 316 316 315 315 315 315 315 316 317 318 318 318 318 318 317 317 316 316 316 316 315 314 314 315 316 316 316 316 314 315 314 314 313 312 314 313 313 315 311 314 318 315 322 317 308 310 312 312 311 312 318 324 325 312 307 311 310 311 312 310 310 310 310 310 310 310 310 310
311 312 313 314 316 316 317 318 318 318 318 318 317 317 316 316 316 316 315 315 315 315 315 315 315 316 315 316 317 317 318 317 317 317 317 316 315 315 315 315 315 315 315 316 316 316 315 315 315 315 314 313 314 315 319 319 322 321 313 321 323 314 323 322 308 308 313 312 309 312 318 320 320 310 307 311 311 311 311 309 310 309 309 309 309 309 309 309
314 315 315 317 318 318 319 318 318 317 316 316 315 315 315 315 315 314 315 314 314 314 315 316 316 316 315 316 317 317 317 317 317 317 316 315 315 315 315 315 315 315 315 315 315 315 315 315 314 314 313 312 316 323 325 322 325 324 315 320 325 317 319 319 311 307 309 311 310 311 317 318 317 310 307 311 311 311 310 308 308 307 308 307 307 308 307 308
316 316 317 317 318 318 317 316 316 315 315 315 314 314 314 313 313 313 314 313 314 315 315 316 316 316 316 316 316 316 316 317 316 317 316 316 315 315 315 315 315 315 315 315 315 315 315 315 313 314 313 310 315 322 324 321 323 324 316 315 320 317 316 317 318 311 307 312 313 312 313 315 316 310 307 310 310 310 308 306 306 306 306 306 306 306 306 307
317 317 317 317 316 316 316 315 314 314 313 313 313 313 313 313 313 313 314 314 314 316 316 316 316 317 318 316 315 316 317 316 316 317 316 316 315 315 315 315 314 315 315 314 314 314 314 312 312 316 315 310 313 318 321 322 324 326 321 318 319 317 315 316 318 313 310 314 315 314 315 315 317 311 307 307 308 309 306 304 304 304 304 304 304 305 305 305
316 316 316 316 315 315 314 314 313 313 312 312 312 312 312 313 313 314 315 316 315 317 318 316 315 317 318 316 315 316 316 316 316 316 316 316 315 315 315 314 315 314 313 313 313 312 312 312 312 316 316 313 314 315 318 320 320 323 322 322 323 319 317 317 316 312 310 313 315 314 315 315 317 314 308 305 306 306 304 303 303 303 303 303 303 303 304 304
315 315 315 314 314 313 313 313 312 312 312 312 312 313 314 315 316 317 316 316 316 316 317 317 316 316 317 316 316 316 315 316 317 316 315 316 315 315 314 313 313 313 312 316 316 310 311 315 316 317 316 315 314 314 315 315 316 316 316 317 319 318 317 315 316 313 308 312 318 315 314 315 315 315 307 304 305 304 303 303 302 302 302 301 302 302 303 303
315 314 314 313 313 313 313 313 312 312 312 312 313 315 316 316 318 319 317 317 317 316 316 316 316 316 316 316 316 316 316 316 317 316 316 315 315 314 313 312 313 314 312 313 313 310 311 316 318 317 315 313 314 312 311 312 313 313 313 315 315 315 315 313 313 314 309 311 319 316 314 315 314 313 306 303 305 304 302 302 301 301 301 300 301 301 301 302
314 314 313 313 313 313 313 313 312 312 312 313 314 315 317 317 318 318 318 319 319 318 319 318 318 317 317 317 317 316 316 317 317 316 316 315 315 314 313 314 317 317 312 311 313 313 313 316 317 314 311 310 313 312 311 312 311 312 312 312 314 315 315 316 314 313 311 311 318 318 314 314 313 308 304 302 302 302 301 302 301 300 300 300 300 300 301 302
313 313 313 313 313 313 313 312 312 312 312 313 314 316 317 318 318 319 319 321 322 321 320 320 319 319 319 318 318 317 316 317 317 316 316 315 314 313 312 314 317 318 314 314 318 318 318 320 316 310 309 311 313 313 312 312 311 313 313 312 315 315 316 320 318 314 313 311 314 316 313 314 312 306 304 302 301 301 300 300 300 300 299 299 299 300 301 301
312 312 313 313 313 313 312 312 313 313 313 314 316 317 318 319 320 321 320 320 322 321 320 321 321 320 321 319 319 318 316 317 317 317 316 315 314 313 312 313 315 317 315 315 317 318 320 319 311 308 311 313 313 313 312 313 313 315 315 313 315 315 316 319 317 315 316 314 312 312 315 320 316 311 308 303 301 301 300 300 299 298 298 298 299 299 300 301
312 313 313 313 313 312 312 313 313 313 314 315 317 318 319 321 321 320 320 322 324 322 319 320 320 320 321 320 320 319 317 317 317 317 317 315 314 313 313 312 314 317 316 314 314 315 317 313 309 312 315 313 313 315 315 315 315 316 318 315 314 316 316 316 315 314 319 321 314 311 320 330 324 318 312 304 303 302 300 299 298 298 298 298 299 299 299 300
313 313 313 313 312 312 313 315 314 314 316 316 317 319 320 321 321 319 321 327 328 323 320 320 320 321 320 319 319 317 319 318 316 318 317 315 314 314 314 312 312 316 315 313 313 315 316 311 310 315 316 314 314 316 316 315 315 318 318 316 314 313 314 315 315 315 321 322 313 309 317 326 326 324 315 305 305 304 300 299 298 298 298 297 298 298 299 299
314 314 313 312 312 312 314 316 315 315 317 317 318 319 320 320 320 318 322 330 328 322 320 319 318 319 317 317 317 319 323 319 314 316 315 314 314 313 317 315 312 313 311 312 317 317 316 313 311 313 315 316 315 316 316 314 317 321 317 316 317 315 316 318 316 317 320 319 316 314 315 317 321 321 311 305 308 305 302 301 298 297 297 297 297 298 299 300
314 314 314 312 311 313 314 316 317 316 317 319 319 320 321 321 320 319 326 333 327 319 319 317 314 315 315 315 316 317 318 315 315 316 312 313 313 312 316 316 315 316 310 313 322 317 313 316 315 314 315 315 315 318 316 313 318 320 313 313 316 316 318 319 318 318 315 313 320 322 315 315 322 320 308 305 309 308 305 303 300 298 297 297 297 298 299 300
314 314 314 313 312 314 315 317 318 318 319 321 321 321 321 321 320 321 326 329 324 317 317 316 313 313 314 315 314 312 311 311 314 314 311 312 313 312 315 313 312 314 309 311 322 317 311 312 312 314 317 316 317 317 313 315 317 312 308 313 315 315 317 318 319 320 315 314 321 323 317 317 324 324 313 308 311 313 309 304 300 298 297 297 298 298 299 299
315 315 314 313 314 315 317 317 318 320 321 321 322 321 320 320 322 325 327 328 325 317 313 313 312 311 313 314 313 310 309 310 311 311 310 311 312 310 312 311 310 314 313 312 318 316 309 307 308 313 315 313 314 310 306 310 311 306 312 320 318 317 318 318 319 318 316 320 321 318 316 316 321 326 320 313 312 312 309 305 300 298 297 297 297 298 298 299
317 316 315 314 315 316 317 318 318 320 322 322 322 321 320 321 323 329 328 326 325 318 312 313 311 310 314 316 315 311 309 309 308 311 312 310 311 310 311 312 312 317 320 316 317 315 311 310 310 310 309 309 313 311 305 306 306 308 319 323 319 319 318 318 320 318 320 325 320 313 312 313 319 325 320 312 308 306 307 306 301 298 297 297 297 297 298 298
319 318 316 315 315 316 317 318 318 320 322 322 322 321 322 323 325 329 327 324 326 321 316 316 311 311 314 315 314 312 311 311 308 311 314 312 313 313 313 317 317 321 322 318 319 318 316 316 312 309 308 309 317 318 310 308 310 315 320 321 321 322 321 323 323 319 321 321 314 311 313 313 318 321 315 312 308 302 301 302 300 298 298 298 297 297 297 298
319 319 318 316 316 316 317 318 318 320 321 322 323 321 323 326 327 328 326 326 326 319 315 316 313 313 315 314 313 311 311 313 310 310 312 311 314 313 313 315 316 322 322 317 317 318 320 319 313 311 311 310 315 318 316 315 314 315 318 320 322 322 324 329 324 318 318 317 311 310 313 315 319 317 311 309 305 299 298 299 300 299 299 298 298 297 297 297
319 320 320 318 317 317 317 317 318 319 321 322 322 322 323 326 326 325 325 325 324 318 316 316 313 313 314 316 316 313 312 313 310 311 311 311 314 314 314 312 312 320 323 316 316 318 321 323 318 316 314 312 313 315 320 322 314 313 317 318 320 323 326 328 326 323 321 318 314 310 314 322 323 313 304 301 299 296 298 300 300 300 299 299 297 296 297 297
319 320 321 320 319 318 317 317 318 319 321 321 322 323 325 325 323 324 325 324 323 321 318 316 313 313 313 315 316 313 312 314 311 311 313 313 315 317 317 315 312 318 321 318 318 317 318 324 321 313 309 310 313 310 312 318 316 312 312 315 317 321 324 320 316 317 316 317 316 314 317 321 316 306 298 298 298 296 298 299 298 299 298 297 297 296 297 296
319 320 321 321 321 320 319 319 318 319 321 321 322 324 323 323 323 324 324 322 322 320 316 316 317 316 315 315 315 312 311 315 314 312 312 313 315 316 317 317 312 313 317 319 321 319 318 323 319 310 308 308 309 308 308 313 318 313 311 317 316 313 321 321 312 308 310 315 317 316 319 316 310 306 301 299 300 298 297 297 297 297 297 297 297 297 296 296
320 320 321 321 321 321 321 320 319 319 320 320 322 323 321 321 322 322 320 318 319 318 317 319 319 318 317 316 317 315 314 316 314 313 314 314 315 314 317 318 312 310 314 318 321 322 322 326 318 311 313 309 304 307 307 306 312 316 315 317 313 310 317 320 316 314 314 317 318 315 316 316 314 314 305 300 302 300 297 297 296 296 297 297 297 297 297 297
321 320 320 320 321 321 321 321 320 320 320 321 323 322 321 321 318 317 318 316 318 320 320 323 321 319 318 318 318 317 316 319 316 314 317 317 316 316 317 319 313 309 311 312 316 319 319 324 319 310 312 310 306 310 313 307 307 313 314 312 312 316 319 316 317 320 318 318 320 315 311 312 315 316 312 309 307 302 298 297 296 296 296 296 297 297 297 298
321 320 319 320 321 321 321 320 319 319 319 321 322 321 321 321 316 314 317 317 318 321 322 323 323 321 320 320 321 319 318 319 316 316 320 318 318 316 314 316 314 310 310 311 316 318 316 320 321 311 309 312 310 313 318 314 307 308 309 308 311 316 318 316 316 317 318 319 320 316 312 314 316 315 318 318 310 301 299 298 297 297 296 297 298 298 298 297
319 318 318 320 321 321 320 319 317 318 319 320 321 319 318 318 316 315 317 317 318 320 321 322 322 323 321 320 321 321 320 320 317 318 321 318 318 317 312 315 316 311 310 310 314 317 315 317 320 315 309 312 315 315 316 316 311 311 312 312 312 313 313 316 314 313 316 319 321 319 315 318 317 312 316 318 309 300 299 299 298 297 297 297 298 299 298 298
317 317 316 318 320 320 318 317 316 317 319 320 319 318 316 316 316 315 315 316 317 318 319 321 321 322 322 320 321 321 320 321 319 319 320 317 318 318 313 313 314 312 313 313 315 317 317 318 320 318 314 316 319 315 310 312 313 313 313 314 314 313 314 316 314 312 314 316 320 319 315 317 316 308 310 312 305 299 298 298 298 298 297 298 299 299 299 299
317 316 315 316 319 318 316 316 316 316 319 319 318 317 316 315 316 316 315 315 317 317 317 319 320 320 320 320 321 320 319 320 319 319 319 318 319 318 313 310 310 312 315 317 317 315 314 317 319 318 318 318 316 309 305 307 311 311 313 314 313 313 314 317 316 315 314 313 314 315 315 316 310 302 303 305 301 299 299 298 298 298 298 299 299 299 299 299
315 314 314 315 316 316 316 317 316 317 318 316 315 315 315 315 315 316 315 316 317 317 317 318 318 319 319 319 319 319 318 319 318 318 319 319 318 314 310 309 309 311 315 317 316 312 312 317 318 317 318 316 313 311 307 306 309 312 313 313 313 314 315 316 316 316 317 316 315 315 316 315 307 299 298 299 298 299 299 299 298 298 298 299 299 299 299 299
312 312 313 314 314 314 315 317 317 318 316 315 315 315 315 315 316 316 316 317 317 317 318 318 317 317 318 318 318 318 318 318 317 317 318 318 316 310 307 309 310 311 313 315 316 313 314 318 318 317 318 316 315 315 313 310 311 314 316 313 313 315 314 313 313 314 315 316 316 315 315 316 310 302 299 299 298 298 298 298 299 299 298 299 298 299 299 299
310 311 311 312 313 313 314 315 316 317 317 315 316 316 315 314 315 315 316 316 315 315 317 317 315 316 317 317 318 318 317 317 316 316 316 317 314 309 306 308 309 310 310 311 311 312 314 316 316 317 318 317 317 316 315 315 314 314 314 313 312 312 312 313 314 313 314 315 315 314 315 315 311 305 304 302 301 301 300 298 299 299 299 299 299 299 300 301
308 309 309 310 313 313 313 313 312 314 317 316 316 316 316 316 314 313 315 316 315 313 314 314 314 315 316 316 317 318 317 316 316 316 316 317 316 310 305 306 307 307 308 308 308 312 315 315 314 316 317 316 316 315 313 315 315 314 314 314 313 311 310 313 315 314 315 315 315 314 314 315 312 309 308 306 304 305 303 298 297 298 299 299 300 301 301 301
305 307 308 309 311 311 311 311 311 312 314 315 316 315 316 316 315 314 314 315 314 314 313 313 314 316 317 316 316 317 316 315 315 316 315 316 315 310 305 305 305 306 307 307 307 312 316 315 314 315 314 314 314 313 312 313 315 315 315 315 314 312 310 311 313 313 313 314 315 314 313 314 314 312 312 311 309 307 302 298 298 300 300 300 301 300 300 299
304 305 306 308 310 311 311 311 311 312 312 313 314 314 315 316 315 315 315 312 312 314 315 314 314 316 317 316 317 317 316 316 315 315 315 315 314 311 308 306 304 305 306 306 306 310 314 315 314 314 314 313 311 309 310 312 312 312 314 314 314 313 311 311 311 311 311 312 313 312 311 313 313 312 312 311 308 306 304 302 302 303 302 300 300 299 299 299
302 303 305 306 307 307 309 311 311 312 312 312 313 313 314 315 315 314 314 313 312 313 315 315 315 314 315 316 316 316 316 316 316 314 314 314 313 312 312 311 307 303 304 305 305 306 311 314 313 311 313 312 308 306 307 308 308 309 310 311 312 311 309 309 310 309 309 309 309 308 308 309 309 308 309 307 304 303 304 303 303 303 301 300 300 300 300 300
302 302 303 304 304 303 305 309 310 311 312 312 313 313 311 312 313 313 312 313 314 313 313 315 315 313 314 314 315 316 315 315 316 315 314 313 312 311 312 313 310 304 303 306 307 305 309 312 310 309 312 310 305 303 305 305 306 307 308 308 307 306 306 306 306 306 306 307 307 306 306 307 305 304 304 303 302 302 303 302 302 303 302 301 301 300 301 301
301 302 302 303 304 303 305 308 309 310 312 312 312 312 311 311 311 311 311 310 312 313 313 314 314 313 313 313 313 314 312 312 313 314 312 311 311 310 310 311 310 308 306 306 307 308 308 309 307 308 312 310 303 302 304 303 303 305 306 306 305 304 306 305 305 305 306 306 307 306 306 307 304 301 300 300 299 299 300 301 301 301 302 302 301 301 302 302
300 301 301 302 305 305 305 307 308 309 310 311 311 310 310 310 308 309 310 308 307 310 311 311 312 312 312 312 312 312 310 310 310 310 309 308 307 307 308 308 307 309 309 306 306 308 308 308 308 308 312 309 301 300 303 304 305 307 306 306 305 304 304 304 304 304 304 304 306 306 306 305 302 299 300 300 299 297 298 299 300 300 300 301 301 301 301 301
Wind_Speed
6 6 6 6 6 6 6 6 6 6 5 5 5 5 5 5 4 4 5 4 5 5 5 6 6 7 8 9 9 10 10 10 12 13 14 14 11 6 3 4 3 2 3 3 4 2 2 2 3 2 1 1 2 2 2 2 3 2 3 3 1 2 3 4 6 5 3 3 4 6 9 4 6 10 11 12 13 11 12 13 13 14 13 11 11 13 16 16
8 8 8 8 7 7 7 7 7 7 6 6 6 6 6 6 6 6 6 6 6 6 7 7 8 8 9 10 10 11 11 12 14 14 11 7 1 5 7 6 4 4 5 5 4 3 3 2 3 2 1 0 1 1 1 2 3 3 3 2 2 5 5 5 6 6 3 4 7 9 8 4 6 9 11 9 12 13 11 15 15 13 13 11 14 17 17 15
11 10 10 10 9 9 9 8 8 8 8 8 8 8 7 7 7 7 7 7 8 8 8 9 9 10 10 11 11 12 13 15 14 9 2 4 7 9 7 4 5 6 7 6 5 4 4 3 3 2 2 0 1 1 1 1 1 2 3 1 5 6 4 5 5 6 6 7 9 9 6 6 9 10 8 6 11 13 9 13 13 11 16 20 20 18 15 12
13 12 12 11 11 11 10 10 10 10 9 9 9 9 9 9 9 9 9 9 9 9 10 10 10 11 11 12 12 12 14 15 9 2 6 6 6 4 2 4 7 9 8 7 6 4 4 4 3 2 1 1 1 0 0 1 0 2 4 3 4 3 1 6 5 6 8 7 7 8 6 9 12 9 7 5 6 10 11 12 9 10 19 23 19 15 14 12
15 14 14 13 13 12 12 12 11 11 11 11 11 11 11 10 10 11 11 11 11 11 11 11 11 12 12 12 12 12 12 9 0 6 5 3 1 3 4 6 9 10 8 7 6 4 5 5 4 2 0 1 1 1 1 1 2 2 4 5 4 4 1 7 6 7 8 7 7 7 7 10 12 10 10 7 4 10 16 14 14 17 20 19 14 13 13 10
17 16 16 15 15 14 14 13 13 12 13 13 13 13 12 12 12 12 12 12 12 13 13 12 12 12 12 12 12 12 8 3 2 3 3 5 7 9 10 11 12 11 9 7 6 4 5 5 4 2 1 2 0 1 1 2 3 2 4 5 4 4 5 9 10 10 10 9 9 8 9 11 12 12 12 11 14 19 22 19 18 17 13 10 9 9 10 10
18 18 17 17 16 16 15 15 14 14 14 14 14 14 14 13 13 13 13 13 13 14 14 13 13 12 12 13 13 12 10 9 9 9 11 12 13 15 15 16 14 12 9 7 5 4 5 6 5 3 2 2 1 2 0 2 4 3 3 4 4 6 7 10 12 13 14 13 15 14 11 13 13 10 10 15 18 17 14 11 9 7 5 4 5 7 8 10
19 19 18 18 17 17 16 16 16 15 15 15 15 15 15 14 14 14 14 14 14 14 14 14 13 13 13 13 13 12 14 15 13 12 14 14 15 16 17 17 15 11 9 7 5 5 5 6 7 4 2 1 2 3 1 1 2 4 4 4 3 6 9 13 15 17 18 16 17 14 12 17 16 11 11 15 13 9 7 5 4 3 3 5 6 7 7 8
19 20 19 19 18 18 17 17 16 16 16 16 16 16 15 15 15 14 14 14 15 14 15 14 14 15 13 13 12 10 14 14 10 10 11 11 12 13 14 14 13 11 8 7 6 6 6 5 7 6 3 2 3 2 2 1 3 4 4 4 5 10 13 15 17 18 16 14 14 10 12 17 12 7 6 6 7 8 6 5 5 4 7 10 11 10 8 8
19 20 19 19 19 18 18 17 17 17 17 17 16 16 16 16 16 15 15 15 15 15 15 15 15 15 14 14 8 6 12 11 7 7 7 8 8 8 10 10 10 10 8 7 6 6 6 5 5 6 4 3 3 2 3 3 2 2 3 6 9 13 15 15 17 20 16 14 14 8 10 13 5 2 2 6 10 8 6 5 5 6 8 9 9 9 10 10
19 19 19 19 18 17 18 17 17 17 17 17 16 16 16 16 16 15 15 15 15 15 15 15 15 15 14 13 9 8 12 11 8 8 8 8 8 8 9 9 9 9 8 7 6 5 5 6 5 4 4 2 3 2 4 4 2 3 5 8 10 12 14 14 16 18 10 7 8 6 7 8 2 2 1 7 10 8 6 6 5 5 3 2 4 6 8 10
18 18 18 18 17 17 17 17 17 17 17 16 16 16 16 16 16 16 16 16 16 15 15 15 14 14 13 12 16 17 16 14 14 13 13 13 13 13 12 11 10 9 9 7 6 5 4 6 7 6 4 3 2 0 2 2 2 4 4 5 9 9 10 10 8 5 1 2 3 2 4 6 3 4 5 10 9 7 6 6 4 2 1 1 2 4 5 7
18 18 18 17 16 16 16 16 16 17 17 16 16 16 16 16 16 16 16 16 15 15 14 14 13 13 10 12 18 18 15 16 16 16 16 16 16 14 12 12 11 10 10 9 7 6 6 7 9 8 6 4 2 1 1 1 2 4 3 2 5 8 7 4 1 0 0 3 2 3 2 6 7 4 6 11 10 6 6 6 4 3 2 1 1 2 3 4
18 18 18 17 17 17 17 17 17 17 17 17 17 16 16 16 16 16 16 15 15 14 13 13 12 11 10 13 17 17 16 16 16 15 15 15 14 12 11 11 11 11 10 10 9 8 7 7 8 8 6 5 3 2 1 4 3 2 2 2 3 2 5 5 1 2 1 2 4 5 1 7 9 2 5 12 12 7 6 7 5 4 3 2 1 1 1 2
19 19 18 18 18 18 18 18 18 17 17 17 16 16 16 16 16 15 15 15 14 13 13 12 11 10 9 13 16 15 16 16 17 17 16 15 14 11 11 12 12 12 11 11 9 7 5 6 8 6 4 4 3 2 2 5 3 2 1 3 3 2 6 9 5 1 1 1 3 5 2 6 9 2 4 15 14 8 8 8 5 4 4 3 2 2 2 3
20 20 19 19 20 19 19 18 18 17 17 16 16 16 15 15 15 15 14 14 13 13 12 10 11 9 7 10 13 13 14 14 13 14 15 15 14 13 12 11 12 12 11 9 7 6 7 6 6 4 2 3 3 4 3 4 4 3 0 4 3 2 3 7 4 1 1 1 2 1 2 4 7 3 8 17 14 9 8 8 6 5 5 4 4 3 3 3
21 20 20 20 20 20 19 18 17 17 16 16 16 15 15 14 14 14 14 13 12 12 10 8 8 7 8 12 13 13 13 13 12 12 12 13 14 13 11 10 10 10 8 7 7 7 8 6 4 3 1 2 3 4 3 3 4 3 0 3 4 3 2 4 4 4 5 3 2 1 2 5 9 8 14 17 10 7 9 9 7 7 6 6 5 5 4 4
21 20 20 20 20 20 19 18 17 16 16 15 15 14 13 13 13 13 13 13 12 9 8 9 6 2 8 14 13 11 10 10 11 12 11 11 11 10 10 9 9 9 7 6 6 7 7 4 3 1 2 2 3 5 3 5 5 4 2 3 3 3 3 4 5 3 5 5 4 3 4 8 11 9 13 15 9 8 11 10 8 8 7 7 6 6 6 7
21 20 20 20 20 19 19 18 17 16 16 15 13 13 13 12 11 13 13 13 11 7 4 9 11 4 3 7 9 10 9 8 9 10 11 11 11 10 10 8 8 10 9 5 4 7 7 3 4 1 2 3 5 7 9 9 7 6 5 5 4 4 4 5 6 4 1 3 5 6 7 8 9 7 9 12 9 11 12 10 9 9 9 9 8 8 8 9
21 20 20 20 20 19 18 18 17 16 15 14 13 11 11 9 6 8 12 16 18 16 12 11 14 12 8 5 5 6 7 7 7 9 10 10 11 11 10 8 8 8 6 4 3 4 6 4 3 5 7 7 8 10 9 4 5 5 3 3 4 5 5 5 5 5 0 1 6 6 5 7 7 5 8 7 7 11 10 9 10 10 9 10 9 10 9 10
20 20 20 20 20 19 18 18 17 17 15 14 14 11 9 7 4 3 7 12 17 19 20 19 17 18 16 11 7 6 8 7 7 9 10 11 11 10 10 9 7 3 2 3 4 3 4 5 7 9 8 7 7 9 6 1 2 2 2 3 4 4 6 6 5 5 1 2 5 3 3 8 5 2 7 6 6 8 8 8 9 9 10 10 10 10 10 10
20 19 19 19 19 18 18 17 17 17 16 15 15 14 10 9 8 7 6 8 13 16 18 19 21 24 23 19 15 12 9 7 8 11 12 14 15 11 9 8 4 3 2 3 4 2 1 4 10 12 5 4 2 4 5 5 4 3 2 2 5 4 4 6 4 5 2 3 4 4 4 8 2 4 6 8 7 7 8 8 8 8 9 10 10 11 10 10
19 19 19 19 18 18 18 17 17 17 16 16 15 15 12 9 9 8 7 6 11 16 18 19 23 26 26 24 23 19 14 11 11 13 14 16 18 13 10 8 4 3 3 4 5 3 3 5 11 11 5 4 1 3 6 3 3 4 4 3 5 3 0 4 4 4 2 1 2 3 5 6 1 4 4 7 9 10 11 10 10 9 10 10 10 11 11 12
19 19 19 19 18 18 18 18 19 18 16 16 15 14 11 8 7 6 6 5 7 11 17 20 22 24 26 24 21 21 20 18 13 12 17 20 18 12 8 8 5 3 4 7 7 6 6 6 3 3 6 6 5 3 6 4 3 3 5 6 5 4 5 6 3 4 3 3 1 2 5 5 1 1 1 4 7 9 9 10 11 10 10 10 10 12 13 14
19 19 19 19 19 18 18 19 20 18 16 16 15 13 9 6 4 2 3 3 5 6 10 15 17 19 23 20 18 18 16 17 15 12 17 23 21 11 5 7 6 4 6 6 5 5 7 7 2 4 3 5 6 4 5 7 3 3 5 10 10 8 7 6 2 4 3 3 3 3 3 5 4 1 4 4 3 5 6 8 10 9 9 10 12 13 14 15
20 20 20 20 20 19 19 18 19 17 15 15 13 11 9 6 3 0 2 3 4 4 4 7 9 9 13 14 15 14 5 8 14 15 16 21 22 12 5 5 3 3 6 5 2 3 4 4 3 4 4 6 5 5 6 7 4 2 5 8 10 8 5 4 2 2 1 2 2 3 1 4 5 4 3 5 4 3 4 6 7 7 9 11 12 14 15 17
21 21 21 21 21 22 21 17 18 18 15 14 13 12 10 7 5 2 4 3 5 4 6 6 7 7 8 11 16 14 2 3 10 13 17 20 20 14 7 4 3 2 4 5 1 2 3 1 2 4 5 5 5 5 5 8 7 3 4 4 6 7 6 6 6 4 3 2 3 3 1 3 5 4 2 5 5 3 3 3 4 6 8 10 12 14 16 18
22 22 22 23 24 25 23 18 17 18 16 13 13 13 10 9 8 5 4 2 4 4 5 4 7 7 9 14 18 11 3 6 7 7 15 19 17 11 6 6 6 4 4 5 4 3 3 3 3 6 4 4 5 4 7 10 4 5 2 6 6 6 6 4 5 3 1 2 4 4 1 2 5 4 2 2 3 1 2 3 3 6 8 10 13 14 17 19
23 23 24 24 24 25 24 21 19 19 17 13 13 14 12 12 9 6 3 3 2 4 3 6 8 6 11 15 11 5 5 4 2 6 12 14 13 7 3 6 8 5 2 2 4 3 1 2 5 7 5 5 4 1 6 8 3 4 5 7 5 5 5 4 5 3 2 1 4 6 3 2 5 5 2 1 3 4 4 4 5 7 9 11 14 16 17 19
25 24 25 25 26 27 26 25 23 20 17 15 15 16 16 13 7 4 4 4 1 3 3 6 6 6 11 11 3 1 3 2 4 10 9 7 9 5 5 6 6 5 1 4 1 3 1 0 2 4 4 5 5 2 1 3 3 7 6 6 6 6 5 3 2 3 2 2 6 5 3 3 3 5 3 3 2 4 5 4 5 8 11 13 15 16 18 19
27 26 28 28 30 30 28 30 26 21 20 18 17 20 18 9 3 3 7 2 2 2 4 3 2 5 9 7 2 2 2 2 5 9 5 3 5 4 6 5 3 4 3 4 2 4 3 0 2 3 5 6 7 4 3 3 4 6 4 4 4 3 4 4 4 3 1 5 5 4 2 4 4 5 3 3 2 2 4 6 8 10 14 16 17 17 18 19
28 28 29 30 32 31 31 31 24 21 21 19 21 23 14 3 3 7 5 2 1 3 4 3 2 4 5 3 2 4 3 2 3 5 4 3 4 4 3 4 4 3 2 4 2 4 3 4 3 1 4 6 6 4 3 4 4 4 4 5 3 3 3 3 3 0 3 5 3 2 1 3 6 6 3 3 3 3 4 5 12 17 20 21 20 19 19 19
31 29 29 32 33 33 33 29 22 22 23 22 25 21 9 3 7 8 6 2 1 2 3 3 2 5 6 4 2 3 3 2 4 3 2 3 3 4 3 2 6 4 1 4 2 1 3 5 2 2 3 7 8 5 2 1 2 4 5 5 3 2 2 2 3 2 4 4 2 1 1 1 5 4 3 4 4 5 7 7 16 24 26 25 23 21 20 20
34 31 30 32 33 33 32 29 25 26 26 26 22 12 5 5 4 3 6 5 1 1 3 3 4 5 5 3 3 4 3 1 4 4 2 3 4 4 4 3 4 4 3 3 2 4 2 4 3 4 2 6 8 5 5 5 4 4 4 5 4 4 4 3 3 3 3 3 2 2 0 3 4 1 3 4 4 4 4 7 17 24 26 25 23 22 21 21
35 33 32 33 34 34 32 31 29 26 28 27 15 5 6 6 2 0 5 4 1 1 3 3 6 5 2 2 3 5 3 2 4 4 2 4 4 4 5 5 6 4 4 3 2 3 3 4 5 2 0 5 6 3 5 6 3 2 3 5 3 4 4 2 3 4 2 2 3 2 2 3 4 1 2 2 3 3 4 11 19 22 23 24 24 23 23 22
35 34 35 36 38 37 34 34 31 28 31 25 9 5 8 4 2 3 2 2 3 4 5 3 4 4 2 2 2 5 2 1 4 3 1 3 3 4 4 4 7 7 5 5 3 2 2 4 5 2 2 2 2 3 4 3 3 2 2 3 4 4 6 3 2 1 3 2 3 2 2 3 0 1 3 3 3 3 5 11 18 22 23 25 26 25 24 23
36 36 36 36 38 37 35 36 34 33 35 21 6 6 5 2 4 4 1 2 3 5 7 4 3 4 4 3 3 6 2 1 4 3 2 3 3 4 4 4 7 11 10 5 2 3 4 2 4 1 1 2 2 5 5 4 4 4 2 5 3 2 4 3 1 2 3 3 4 0 3 3 1 1 2 2 1 2 4 8 13 19 22 25 27 27 26 25
38 37 35 36 36 34 33 34 36 38 31 13 7 9 4 2 5 4 3 4 3 3 4 3 3 3 5 5 3 5 4 3 4 4 3 2 2 5 5 3 6 11 14 9 0 1 4 1 5 1 1 2 3 5 4 5 3 4 4 3 3 2 1 2 1 1 1 3 4 3 2 3 4 4 2 4 7 8 7 7 10 16 23 27 29 29 28 27
38 32 28 34 37 34 31 30 35 35 20 6 8 10 3 2 4 5 7 5 3 3 2 2 2 1 3 5 3 4 5 4 5 4 3 3 3 4 4 3 4 4 9 9 4 1 3 1 3 2 0 1 2 2 3 1 2 3 2 2 2 2 3 2 2 2 2 2 3 4 2 2 5 5 7 9 11 12 11 10 11 18 26 30 32 32 31 30
35 21 15 27 34 33 30 27 29 24 10 3 7 5 2 3 4 7 11 7 2 2 2 2 2 2 2 3 2 3 3 4 6 4 3 3 3 3 2 2 4 2 2 5 3 0 2 1 3 2 2 1 1 2 5 6 4 2 2 2 1 1 2 1 1 2 3 3 2 3 4 5 4 3 7 9 9 12 15 13 13 21 28 31 32 34 34 32
29 11 7 20 26 27 26 21 16 11 3 2 3 2 2 3 3 5 8 7 3 3 3 2 3 2 3 2 1 3 3 4 6 4 3 4 3 2 2 2 5 5 4 4 2 2 1 2 3 1 1 3 4 4 3 4 4 4 4 5 5 4 3 2 4 1 2 2 4 3 6 7 4 2 4 5 5 11 16 15 15 23 30 32 34 35 35 34
23 6 4 17 21 24 25 14 6 5 3 4 4 5 5 4 4 5 5 5 4 2 3 3 2 2 2 2 1 2 3 2 4 4 2 4 3 1 1 2 4 6 6 3 2 2 2 2 2 2 3 5 5 2 2 2 3 3 3 4 4 4 5 5 6 3 2 2 2 2 4 6 2 2 3 3 4 9 16 17 16 21 29 33 35 35 34 33
16 6 7 16 21 27 22 7 4 6 3 4 7 6 7 5 4 4 4 4 2 2 2 2 1 2 1 2 2 1 1 1 2 3 1 1 1 0 1 2 3 4 4 2 2 2 2 2 1 3 3 2 4 3 2 3 3 2 3 2 4 4 4 5 5 3 3 4 2 2 4 5 1 1 1 3 4 7 14 20 19 21 27 32 34 34 34 33
10 10 8 12 19 25 15 1 4 6 2 5 6 4 5 5 4 5 4 4 3 3 2 1 1 2 2 2 3 2 1 1 0 1 1 1 1 1 1 2 3 2 2 2 3 4 3 2 2 2 3 3 3 3 2 2 0 2 3 1 3 4 4 2 1 3 2 6 6 4 7 5 1 1 2 2 0 3 10 18 21 22 26 29 31 32 32 31
7 7 4 8 18 20 8 2 2 3 3 4 3 3 5 2 5 9 6 5 6 5 3 2 2 4 3 3 4 4 4 4 2 2 2 2 1 1 2 3 5 3 2 5 6 4 2 2 3 4 6 6 5 2 2 2 1 2 1 1 3 5 7 3 2 3 5 5 7 6 8 5 2 3 3 2 2 3 7 15 19 20 21 26 30 32 33 33
3 2 1 4 11 12 7 4 1 2 2 4 1 3 5 2 3 8 8 7 7 7 4 2 3 4 2 3 4 4 5 5 3 2 3 4 2 1 1 1 4 3 3 7 8 5 2 2 3 5 7 7 5 3 2 2 3 2 2 2 4 5 5 3 2 4 5 3 5 7 5 2 2 2 3 4 2 4 6 10 14 17 19 24 30 36 37 35
2 1 3 3 4 6 6 5 4 2 2 4 2 2 6 7 2 3 7 6 7 9 4 1 4 4 3 5 4 4 5 5 4 4 3 3 1 1 0 1 1 3 4 7 8 5 3 2 6 7 10 9 4 3 3 2 4 5 5 6 7 6 6 5 6 5 2 2 6 5 3 2 5 4 5 6 4 4 6 9 14 18 21 25 29 34 34 33
3 2 5 7 3 3 5 7 8 6 2 3 3 1 3 8 5 4 5 2 3 9 5 1 4 8 8 8 6 4 5 5 5 5 3 1 2 1 0 1 1 4 4 5 6 5 3 4 6 7 10 9 1 2 2 2 2 3 5 8 10 9 9 9 10 8 5 5 8 2 6 5 6 5 7 7 7 7 8 10 14 16 19 22 25 28 31 31
6 3 5 8 4 1 4 8 10 10 7 5 3 2 3 7 7 4 4 3 1 6 7 5 6 8 8 8 7 5 6 6 5 4 3 3 4 3 1 1 2 4 3 2 2 2 3 3 3 4 7 5 2 2 1 2 2 3 6 11 11 8 8 9 9 7 6 8 7 0 4 8 7 5 7 7 7 7 8 10 12 14 16 19 21 25 29 31
9 6 5 6 4 0 2 6 8 8 8 6 6 6 5 6 6 3 3 5 4 3 7 9 7 6 8 8 8 9 9 7 5 4 6 6 3 2 3 3 2 2 2 2 1 2 2 2 2 4 3 2 2 2 2 2 2 3 9 13 8 4 5 6 5 3 3 5 6 4 7 10 5 5 7 7 6 7 10 13 14 14 15 16 19 24 27 29
12 11 7 4 3 2 3 3 5 4 5 6 8 7 6 7 9 6 2 5 7 4 7 12 8 5 6 7 10 11 9 8 8 7 9 9 7 5 5 5 6 5 2 2 1 2 3 1 2 3 3 3 2 3 3 3 2 4 13 16 8 5 5 5 3 5 6 6 6 6 8 9 3 5 5 6 7 11 14 16 15 15 15 17 19 22 24 26
16 13 10 5 2 3 4 2 4 4 5 7 9 8 7 8 8 9 4 5 6 8 9 11 8 5 4 7 11 12 10 8 9 9 9 9 8 8 8 8 10 8 5 5 1 1 4 3 2 3 4 2 1 2 4 4 2 7 12 10 9 9 8 4 2 6 8 7 5 7 8 6 2 5 4 5 7 10 13 15 15 17 17 17 19 20 21 22
Wind_Direction
253 252 249 248 244 243 240 238 238 238 237 236 236 234 235 236 236 239 241 247 252 258 266 273 285 291 296 301 304 307 309 313 313 315 315 312 303 284 219 164 128 68 32 18 359 333 290 262 244 259 274 331 8 31 36 20 44 42 84 92 312 197 201 185 184 193 172 281 293 336 346 332 304 320 325 316 304 306 304 292 290 289 292 301 311 320 319 318
254 255 255 254 252 251 249 248 247 248 247 248 248 246 245 244 247 249 250 255 260 264 270 276 285 290 294 299 302 306 310 312 312 314 315 318 322 132 129 120 83 33 16 360 337 313 283 254 238 248 291 327 14 22 37 19 51 69 106 101 242 202 209 201 190 200 193 294 297 314 324 298 287 309 323 317 302 317 317 302 303 303 314 324 322 324 321 318
253 253 255 255 255 255 254 254 254 253 254 254 254 254 254 254 258 260 261 264 266 270 274 278 284 289 293 296 301 307 312 315 316 317 340 103 114 117 108 78 26 1 348 341 322 297 273 241 229 242 262 290 19 15 70 38 51 87 105 133 245 217 233 246 230 236 256 292 301 309 313 294 298 305 309 299 303 312 297 293 300 309 322 324 325 328 324 323
250 250 251 252 253 253 254 254 254 255 256 257 257 259 259 260 264 264 267 267 268 271 274 278 283 287 292 295 301 306 316 322 317 178 143 127 120 116 58 9 352 339 330 332 318 286 262 232 232 254 253 4 8 328 196 332 278 156 147 186 225 185 253 268 270 285 287 296 292 298 311 304 309 308 287 289 318 304 287 296 305 313 318 318 324 331 330 334
249 248 248 248 250 251 252 252 253 254 255 257 257 259 261 260 262 264 266 268 269 271 274 279 282 287 291 293 299 305 324 340 35 146 156 182 222 279 298 319 328 326 320 325 313 270 249 233 236 253 231 350 20 30 292 221 152 178 212 231 220 159 238 287 304 314 309 307 295 296 303 302 305 298 282 271 250 273 290 307 311 308 309 312 324 334 338 349
250 249 248 248 249 250 251 252 252 252 253 255 256 257 259 260 262 264 266 269 271 273 276 278 281 286 289 293 296 303 318 321 202 186 242 258 275 283 285 298 311 313 308 315 308 261 238 231 235 219 122 27 249 202 302 184 175 212 261 266 260 221 245 288 303 310 308 303 297 292 292 296 298 297 293 269 255 276 293 300 300 302 306 314 333 340 347 -0
252 251 250 249 249 250 251 252 252 252 253 254 255 256 258 260 262 264 266 270 271 274 278 279 283 285 288 292 294 299 290 270 266 268 270 268 269 274 277 286 294 296 295 306 298 242 229 227 218 190 127 44 234 206 145 189 190 189 268 290 296 270 262 289 303 304 301 295 294 294 290 288 286 292 301 284 282 302 310 305 304 308 331 343 353 358 356 356
253 253 252 251 250 251 251 252 253 254 255 255 257 258 259 261 262 266 269 271 274 276 278 281 283 284 288 291 293 296 282 278 283 272 267 263 261 265 268 275 281 282 282 291 282 225 227 231 217 206 167 201 212 199 172 243 223 183 237 286 303 285 286 299 303 299 297 295 296 295 281 280 284 281 286 293 310 356 12 11 22 10 17 16 10 9 0 352
253 254 253 254 253 253 254 254 255 256 257 259 260 262 263 266 267 269 272 273 276 276 278 280 281 284 286 286 290 293 284 286 290 271 263 260 259 262 264 270 271 268 268 273 264 224 223 228 226 228 230 228 202 200 157 171 261 202 224 288 294 292 298 302 298 295 295 294 294 290 280 286 297 290 280 322 6 29 12 12 41 18 0 358 353 354 352 347
252 253 254 254 254 255 255 255 257 258 260 262 263 265 266 268 269 270 272 273 274 275 277 278 279 282 281 280 275 272 282 286 281 266 261 259 260 262 266 270 263 257 259 260 247 230 228 234 240 231 239 243 179 178 157 161 260 252 287 296 288 294 300 300 292 288 289 289 282 263 274 289 307 287 271 30 31 21 3 21 38 10 355 343 331 332 337 336
251 252 252 253 254 254 255 254 256 257 260 262 264 266 267 268 269 269 270 271 273 274 275 276 277 276 274 272 243 237 275 279 270 267 259 257 258 264 269 267 258 250 248 244 228 225 233 238 238 216 225 216 164 199 208 209 272 312 323 305 294 306 305 292 284 287 287 284 276 235 261 295 305 219 158 44 35 29 22 33 29 9 358 314 293 312 318 323
250 250 250 252 252 252 253 254 255 256 259 260 262 264 266 267 268 269 270 270 271 271 272 271 271 269 268 263 248 254 273 271 267 268 263 263 264 266 264 256 253 247 238 227 214 220 234 240 235 225 221 183 157 247 217 222 301 311 345 319 305 335 323 287 273 291 244 234 280 188 283 309 265 203 93 46 30 26 27 42 50 68 121 211 250 286 298 312
247 248 249 249 251 251 253 254 255 257 258 260 263 264 266 267 268 268 268 268 268 268 269 267 267 268 263 257 260 267 271 265 265 266 264 264 265 264 256 247 245 238 228 223 230 245 249 245 235 228 222 193 182 192 208 20 350 300 5 14 318 348 328 287 170 337 137 260 228 133 288 285 268 219 87 25 9 18 35 57 70 103 130 165 214 271 287 304
245 247 248 248 250 251 252 255 256 258 260 262 263 264 265 266 266 267 267 267 268 266 267 265 266 267 256 257 268 270 264 262 261 259 260 260 259 257 248 240 234 228 228 239 255 261 251 237 223 218 216 209 197 174 291 3 26 303 351 28 351 346 282 295 335 269 326 297 187 146 221 260 277 269 70 5 2 24 49 72 72 87 105 103 110 312 319 332
247 247 248 249 250 251 252 254 256 258 259 260 261 262 263 265 266 266 266 266 265 265 265 264 265 263 260 264 268 266 262 259 257 255 254 254 254 249 240 232 230 232 240 251 252 241 222 205 201 198 195 197 178 131 357 350 14 16 333 305 333 178 266 309 325 247 207 321 136 137 212 268 280 251 43 356 357 18 54 83 72 69 86 88 86 53 41 31
247 247 247 249 250 252 252 252 254 255 256 257 258 259 260 262 263 263 264 262 262 262 261 262 259 251 259 271 266 261 260 255 253 251 247 248 248 242 237 233 233 235 238 237 225 202 186 179 180 172 167 170 141 98 46 354 337 356 184 246 268 196 273 319 333 341 123 99 67 119 219 282 283 267 7 359 358 14 60 83 72 75 80 77 75 66 71 64
247 247 247 248 248 250 250 250 252 252 253 254 254 256 257 258 259 259 258 256 256 255 254 253 249 248 254 261 261 258 258 252 247 245 239 240 240 236 231 223 221 220 215 204 193 186 180 173 166 174 144 98 105 97 66 322 284 306 21 229 247 209 231 299 307 343 40 64 6 344 216 258 273 296 352 10 18 38 75 85 77 82 77 77 80 74 78 71
246 244 243 244 245 246 247 248 247 248 249 249 249 250 251 252 253 254 253 252 248 248 254 232 207 266 259 246 247 253 257 247 237 234 231 230 227 223 214 209 211 203 182 172 183 179 176 166 139 136 22 63 120 118 156 231 220 213 194 204 249 234 226 260 271 304 22 18 330 301 260 264 273 299 1 24 41 67 83 87 82 85 82 83 81 74 74 68
242 239 238 239 241 242 244 243 241 241 242 241 242 242 243 248 250 253 250 240 224 214 242 213 193 192 243 236 243 250 250 236 227 227 225 221 213 203 195 194 196 183 162 153 183 173 164 124 98 152 232 195 180 169 198 216 194 192 193 173 199 231 245 245 250 258 349 347 296 263 257 267 274 297 7 27 54 79 87 89 82 83 82 81 80 76 74 70
237 234 233 235 236 238 238 236 235 234 233 233 230 229 234 234 242 256 242 233 231 232 240 228 215 222 237 259 259 237 227 219 221 224 218 210 201 190 181 173 165 168 161 154 177 165 154 149 169 212 215 194 196 202 209 206 149 156 179 190 203 222 263 261 260 281 82 306 271 247 249 268 270 303 357 20 64 69 69 77 75 76 78 76 77 76 74 72
234 232 231 232 232 232 230 229 228 227 226 224 218 215 218 210 209 262 245 245 251 247 246 246 243 242 244 251 251 231 221 219 228 224 212 199 190 182 178 166 145 164 215 140 125 117 144 177 218 227 214 187 196 208 217 227 152 165 202 250 258 224 255 259 258 301 12 180 264 283 304 281 272 353 6 29 63 49 51 72 71 75 78 76 78 78 78 80
233 231 230 230 229 227 225 223 223 222 219 216 215 214 218 219 227 256 275 277 271 259 250 247 246 246 245 243 241 235 220 218 227 216 204 192 188 190 180 164 150 177 186 117 107 84 171 215 238 238 206 130 133 169 187 219 220 228 207 245 271 239 274 283 284 331 23 177 266 334 322 281 296 58 29 47 70 64 71 87 84 88 86 82 84 84 89 94
231 229 228 228 226 222 219 218 219 219 216 214 217 217 223 233 239 260 279 285 278 266 254 246 244 244 244 242 239 232 221 224 229 216 207 196 190 194 180 160 157 148 144 180 173 168 209 240 244 235 182 139 211 139 142 183 219 220 198 205 253 233 254 280 289 336 7 158 258 326 307 280 38 75 43 62 89 85 85 93 92 95 92 87 91 94 99 101
228 226 226 225 222 218 214 215 217 218 216 214 216 216 221 234 240 272 286 279 282 267 254 249 245 243 243 242 238 231 225 228 230 218 211 200 185 183 188 171 146 143 191 204 194 198 231 249 238 173 152 177 219 176 144 178 238 238 208 208 233 222 210 230 283 333 341 12 5 354 318 294 272 131 95 92 99 88 85 90 86 89 96 99 103 103 104 106
223 223 223 221 218 214 210 215 217 216 215 215 216 212 211 217 221 289 313 301 288 266 255 244 237 240 238 235 233 223 221 228 227 220 211 202 189 173 176 178 162 199 207 186 192 225 253 254 165 111 132 171 196 214 188 186 222 279 227 213 221 221 221 231 333 7 359 350 349 31 350 295 310 283 192 162 106 80 81 81 81 89 102 108 107 106 109 110
219 219 218 217 214 207 208 217 217 213 214 216 214 205 201 194 170 347 34 21 291 239 203 212 212 222 220 218 210 195 208 238 219 213 203 199 198 183 161 167 157 212 187 152 178 228 251 252 177 163 169 153 180 236 222 173 152 281 247 212 214 211 205 209 160 114 186 252 306 38 144 261 313 316 208 162 122 94 82 72 82 100 105 111 111 112 116 114
217 216 215 213 208 204 207 213 214 210 210 214 209 196 192 179 150 96 58 5 281 191 148 171 174 177 192 188 176 168 188 193 178 195 192 190 197 191 187 176 129 194 164 132 237 244 197 194 83 149 158 157 193 238 217 159 136 240 256 156 170 182 186 191 164 172 224 247 325 358 144 243 293 292 232 147 136 105 84 79 90 109 117 121 122 122 122 120
217 215 215 212 208 209 209 210 212 208 206 210 201 189 179 162 151 114 84 302 266 134 129 161 156 165 169 165 165 158 136 139 141 184 184 181 189 185 201 202 167 176 157 148 224 265 155 175 186 161 154 191 211 222 185 158 150 245 214 113 134 152 159 151 132 162 291 21 312 303 138 249 270 273 340 119 168 215 187 183 154 138 141 138 135 132 129 126
219 216 216 213 210 211 211 210 210 205 204 201 189 181 164 149 139 99 94 240 212 108 119 153 147 153 149 153 167 148 114 119 106 163 166 173 183 170 181 194 160 142 120 148 219 260 92 202 201 155 157 207 211 258 181 169 188 198 129 93 78 75 81 83 102 117 42 42 252 249 184 205 271 283 326 84 244 242 205 194 179 161 158 151 145 141 135 131
219 218 217 212 209 209 209 212 210 202 197 189 181 172 156 147 127 108 200 228 163 99 117 151 161 158 145 145 169 113 114 72 100 135 142 156 170 145 123 148 127 120 54 5 268 258 351 95 197 156 177 184 140 72 129 151 144 137 110 64 49 38 41 42 56 90 61 277 246 241 209 192 266 284 238 180 221 198 166 167 177 173 171 165 156 148 142 137
219 219 216 212 212 210 209 212 208 197 189 181 175 165 156 149 109 176 214 216 65 113 114 141 182 150 150 148 164 161 100 56 127 134 126 124 145 126 118 131 101 88 14 332 289 307 335 280 257 212 181 139 104 70 48 64 97 114 93 72 67 351 11 25 356 47 116 255 257 265 237 176 215 265 244 215 233 189 173 175 173 178 180 173 164 157 151 143
220 218 217 216 217 215 216 216 205 190 188 181 173 167 157 166 211 207 223 61 95 199 148 165 191 148 157 110 109 160 120 113 158 137 131 131 150 168 157 165 158 95 338 250 243 336 300 239 264 202 187 163 117 75 45 33 50 86 98 96 88 333 7 3 312 304 229 247 256 269 198 178 227 249 232 222 252 261 257 211 178 176 179 176 169 163 158 151
224 217 216 217 218 218 220 222 206 192 191 183 178 174 159 201 215 210 212 180 200 204 122 127 111 126 146 124 147 179 117 160 184 145 130 119 142 207 243 189 153 124 139 197 181 344 286 293 286 138 215 196 161 139 159 171 111 143 144 126 129 115 67 297 273 275 271 260 257 281 84 212 263 262 210 234 272 280 281 243 192 179 176 174 171 168 164 159
225 217 215 217 220 220 221 220 208 198 194 185 182 185 183 210 232 207 194 199 272 36 76 101 103 115 147 163 211 180 123 198 173 130 109 116 134 205 234 225 167 110 102 142 166 171 195 301 225 180 207 186 178 174 160 143 137 172 157 132 145 153 164 229 226 222 261 280 291 293 130 192 215 229 225 248 295 311 280 212 187 180 176 173 173 172 171 167
222 218 216 218 220 220 221 220 210 202 198 190 185 204 208 210 264 184 190 193 180 62 48 71 103 114 181 257 257 195 178 229 164 126 137 158 166 192 191 203 195 152 127 156 213 158 158 260 253 276 25 158 177 185 127 110 122 202 129 115 160 178 157 180 195 179 196 297 294 242 228 219 188 216 295 294 7 41 123 159 168 174 176 176 179 179 177 174
217 218 221 225 224 219 219 219 212 206 202 195 191 220 211 211 186 182 200 155 155 144 111 89 95 111 198 244 248 225 223 137 150 141 176 182 200 201 194 213 193 178 162 159 195 154 125 269 282 348 24 94 155 175 119 112 177 159 123 172 214 174 120 110 223 92 74 280 271 196 237 285 300 297 324 31 41 58 119 150 163 171 176 181 185 184 181 179
214 216 223 230 229 224 221 219 215 210 204 198 208 222 210 220 185 174 200 145 135 140 136 154 179 157 183 193 199 208 201 116 147 153 185 201 222 191 199 242 185 184 197 181 196 193 147 264 288 92 112 343 54 117 74 44 120 122 181 208 199 131 96 100 230 356 38 252 273 266 233 259 204 251 323 43 100 194 174 168 169 175 182 188 191 188 185 182
217 216 222 230 233 230 224 222 217 209 202 197 222 221 204 196 187 158 174 164 107 110 141 184 200 166 178 188 187 183 178 180 169 164 176 198 240 175 165 216 180 189 208 195 169 246 139 255 297 32 142 302 34 97 68 14 61 119 181 179 112 140 148 91 164 237 255 251 285 305 262 239 205 202 216 209 203 196 190 186 183 188 191 194 194 191 187 185
220 213 218 228 231 232 231 226 214 204 198 201 220 217 191 163 189 172 173 163 93 115 159 209 191 108 171 174 158 161 172 177 167 170 177 171 221 187 153 182 169 195 215 190 178 256 120 159 276 330 342 251 32 89 174 250 28 73 112 96 68 156 167 151 152 166 201 235 284 301 300 246 230 201 185 201 198 181 181 189 197 199 197 196 194 191 190 190
212 203 214 222 224 230 229 216 203 198 197 215 208 204 156 158 185 178 172 162 102 137 185 216 166 140 171 158 149 168 159 159 163 174 202 177 188 203 177 153 132 105 179 161 159 342 91 164 239 306 338 165 173 210 189 179 162 126 138 158 191 122 107 212 210 123 139 179 227 284 285 261 249 199 187 204 193 178 184 188 196 202 199 198 196 194 193 192
197 194 223 211 214 221 210 193 191 194 191 210 187 160 175 169 155 170 180 177 146 120 135 149 155 164 160 143 185 187 152 157 170 173 201 191 180 189 189 149 146 145 108 105 149 201 150 166 193 214 205 191 224 241 195 179 169 157 183 191 187 176 144 213 244 181 115 179 182 213 272 269 248 191 195 206 188 187 192 189 193 200 199 199 199 197 196 194
186 186 207 193 196 197 185 175 184 183 185 202 167 150 162 151 141 158 168 165 146 117 120 126 135 149 150 147 150 153 139 154 180 181 195 198 188 173 168 149 151 149 125 113 194 199 119 123 164 231 216 218 251 268 134 158 131 128 208 202 175 178 159 185 229 219 137 223 159 132 272 278 255 199 217 229 217 201 197 195 197 200 200 201 201 200 200 197
173 146 166 183 185 181 175 175 183 174 190 171 142 136 149 149 147 150 157 167 143 111 131 133 152 166 166 140 114 91 92 117 175 177 167 192 197 0 99 143 145 131 116 123 190 148 107 109 178 268 293 310 311 340 65 91 96 156 232 172 152 197 184 188 210 167 161 218 152 116 257 265 279 229 238 257 241 210 202 202 201 201 203 204 203 203 202 199
142 125 151 180 182 179 179 195 169 176 184 140 129 133 152 158 166 157 162 181 160 122 133 155 186 181 177 131 136 164 153 117 215 209 175 184 187 165 139 164 185 164 119 157 166 160 174 162 156 217 299 321 322 342 3 358 51 211 237 193 188 190 152 141 130 111 220 212 161 184 246 246 269 338 16 13 158 200 211 207 205 205 204 204 205 206 204 201
114 113 146 185 184 183 193 340 122 160 171 146 134 147 146 156 193 189 184 171 165 154 148 185 172 158 160 136 145 175 175 176 212 218 189 209 261 206 185 199 203 187 132 145 133 120 167 185 160 189 231 243 237 224 226 236 215 213 272 299 242 195 167 167 135 175 230 197 154 209 247 243 310 345 350 358 107 171 217 209 209 212 207 205 207 206 203 203
121 121 158 199 199 200 228 269 154 107 157 171 153 155 167 187 206 194 191 182 178 161 131 144 148 133 144 149 153 185 195 193 200 193 184 196 240 257 205 235 221 204 157 138 126 106 108 194 205 211 231 237 216 205 212 145 142 195 225 210 222 218 198 178 155 200 220 172 184 229 230 207 284 300 277 270 197 198 228 210 208 213 211 211 210 206 205 208
142 196 179 178 224 230 242 244 208 142 118 172 183 172 187 196 195 184 191 194 182 167 144 92 153 160 181 164 165 201 198 193 200 197 180 176 215 293 319 303 246 206 184 155 151 140 111 209 218 217 240 249 209 173 207 172 171 201 215 215 214 207 186 182 209 219 144 134 232 235 131 168 241 216 222 248 222 218 235 213 208 212 213 214 212 208 210 215
185 233 199 184 192 215 216 214 199 193 186 181 190 55 179 197 195 180 188 193 172 176 179 258 195 194 186 167 169 198 190 195 206 190 156 148 196 193 111 284 221 191 185 169 170 154 131 220 217 203 236 251 192 113 189 192 205 214 214 225 227 212 189 194 220 219 179 217 252 214 139 206 240 201 198 222 218 219 227 220 218 219 218 217 214 213 216 220
198 236 217 201 205 225 205 193 182 193 204 190 197 223 197 201 201 183 152 110 171 204 199 217 218 197 181 168 167 189 195 194 199 187 170 193 202 174 170 249 224 194 176 155 196 176 151 212 197 180 231 244 119 87 131 153 218 262 239 236 237 225 201 203 222 218 201 238 268 224 184 238 245 195 198 221 225 228 240 241 236 232 228 222 219 220 223 225
206 216 207 202 219 305 171 168 163 191 206 191 212 225 198 191 198 184 139 160 189 210 198 214 219 177 175 181 183 208 212 183 172 181 176 188 206 180 196 212 175 177 178 153 213 220 186 207 120 137 227 252 127 109 77 111 181 251 257 252 238 188 192 210 221 208 202 257 273 259 253 264 249 170 191 226 224 220 238 245 243 243 241 234 228 228 230 232
212 213 199 192 213 173 157 156 148 175 201 194 214 214 190 205 202 177 185 217 205 184 187 207 208 162 178 198 202 220 217 178 186 202 187 193 202 192 206 194 155 150 177 179 186 194 193 221 57 118 210 234 137 135 121 86 56 269 262 256 227 171 198 207 187 192 202 222 245 250 257 266 244 141 174 231 220 216 233 243 246 251 251 247 244 242 243 244
214 218 211 202 227 178 168 143 136 176 207 207 214 210 200 213 187 161 192 255 218 205 206 201 186 153 189 212 216 229 225 205 222 232 218 218 219 215 226 207 173 164 171 174 171 171 173 165 123 175 205 219 63 139 126 83 0 266 258 244 209 207 225 226 224 227 212 194 206 236 249 253 183 139 173 239 226 224 240 247 249 253 254 255 256 257 259 261